User: anonymous   Login
Location: Fairmont
(43.6520°N, 94.4610°W)
Time: 22:20:38
(UTC-05:00)
Language:

Cosmos-2242 - Orbit

View from above orbital plane
View from above orbital plane
View from above satellite
View from above satellite

Ground track
Ground track

The orbit data is extracted from the following two-line orbital elements,

1 22626U 93024A   14303.90434478  .00002591  00000-0  29116-3 0  2471
2 22626 082.5245 226.4479 0021276 068.5975 291.7509 14.86210182163420
Epoch (UTC): 30 October 2014 21:42:15
Eccentricity: 0.0021276
inclination: 82.5245°
perigee height: 595 km
apogee height: 624 km
right ascension of ascending node: 226.4479°
argument of perigee: 68.5975°
revolutions per day: 14.86210182
mean anomaly at epoch: 291.7509°
orbit number at epoch: 16342

The dashed part of the orbit path shows where the satellite is in the earth's shadow,  

DLR